{"data":{"norad_id":60465,"intl_designator":"2024-148H","name":"YAOGAN-43 01H","alt_names":[],"object_type":"PAYLOAD","status":"ACTIVE","operator":null,"country":"PRC","launch_date":"2024-08-16","launch_site_code":"XICLF","launch_vehicle":null,"mission":null,"orbit_class":"UNKNOWN","rcs_meters":null,"size_class":null,"mass_kg":null,"dimensions":null,"purposes":[],"wikipedia_slug":null,"has_3d_model":false,"image_url":null,"decayed_at":null,"tle_current":{"epoch":"2026-09-22T23:31:39.680832Z","epoch_age_seconds":71864,"freshness":"FRESH","line1":"1 60465U 24148H   26265.98032038  .00010501  00000+0  36041-3 0  9997","line2":"2 60465  34.9848 256.9475 0006335 353.6281   6.4354 15.29339012117165","mean_motion":15.29339012,"eccentricity":0.0006335,"inclination_deg":34.9848,"raan_deg":256.9475,"arg_perigee_deg":353.6281,"mean_anomaly_deg":6.4354,"bstar":0.00036041,"rev_number":11716,"period_min":94.15832517846,"perigee_km":473.44380251523,"apogee_km":482.13025826173,"semimajor_km":6855.9240303885,"source":"CELESTRAK","updated_at":"2026-09-23T09:00:20.620171Z"}}}